Pagrindinis puslapis
METAR-TAF:

METAR-TAF

Oro uostai :

Clayton, Naujoji Meksika, Jungtinės Amerikos Valstijos

platuma: 36-26-54N, ilguma: 103-09-11W, Aukštis: 1513 m

Dabartinis oras

Ataskaita buvo paskelbta 11 minutes, ne 04:55 UTC
Vėjas 8 kt iš Pietų/Pietryčių
Temperatūra 15°C
Drėgmė 67%
Slėgis 1023 hPa
Matomumas: 16.1 km
Giedras dangus

METAR: KCAO 220455Z AUTO 16008KT 10SM CLR 15/09 A3021 RMK AO2 SLP185 T01500089

Laikas: 23:06 (05:06 UTC)


TAF: trūkstamas

Orai ataskaitas ir orų prognozės (METAR, TAF).

turimą stotys yra geltonos ir raudonos taškus žemėlapyje.

Perkelti pele per norėdami pamatyti stoties vardą.

Tada spustelėkite, norėdami matyti oro stebėjimo ir prognozės.

Norėdami pakeisti žemėlapį: spustelėkite ant žalios mygtukų su juodo kryžiaus žemyn,; žalią mygtuką su brūkšneliu, jei norite nutolinti; arba žalių rodyklių gretimoms žemėlapius.


METAR-TAF: